Location: Oshawa
(43.9000°N, 78.8670°W)
Time: 09:52:25
(UTC-04:00)

Thor Agena Rocket - Visible Passes

Search period start: 03 May 2015 00:00
Search period end: 13 May 2015 00:00
Orbit: 761 x 808 km, 99.0° (Epoch: 02 May)

Date Brightness Start Highest point End Pass type
(mag) Time Alt. Az. Time Alt. Az. Time Alt. Az.
03 May 4.2 02:48:20 36° ESE 02:50:05 51° ENE 02:55:14 10° N visible
03 May 4.8 04:28:56 21° WSW 04:29:47 22° W 04:33:44 10° NW visible
04 May 5.3 02:16:45 19° ESE 02:19:14 29° ENE 02:23:44 10° N visible
04 May 4.0 03:57:21 37° SW 03:58:25 41° W 04:03:23 10° NNW visible
05 May 6.0 01:45:24 10° E 01:48:29 16° ENE 01:51:47 10° NNE visible
05 May 3.5 03:25:45 48° S 03:27:14 78° WSW 03:32:34 10° NNW visible
06 May 4.1 02:54:10 34° SE 02:56:13 57° ENE 03:01:26 10° N visible
06 May 4.9 04:34:46 18° WSW 04:36:00 20° W 04:39:41 10° NW visible
07 May 5.1 02:22:36 19° ESE 02:25:20 32° ENE 02:30:00 10° N visible
07 May 4.2 04:03:12 31° SW 04:04:36 36° W 04:09:28 10° NNW visible
08 May 5.9 01:51:11 10° E 01:54:35 18° ENE 01:58:09 10° NNE visible
08 May 3.5 03:31:36 41° S 03:33:24 70° WSW 03:38:43 10° NNW visible
09 May 6.5 01:23:54 10° NE 01:23:57 10° NE 01:24:18 10° NE visible
09 May 3.9 03:00:02 33° SE 03:02:21 64° ENE 03:07:38 10° N visible
09 May 5.1 04:40:38 16° WSW 04:42:13 18° W 04:45:36 10° NW visible
10 May 5.0 02:28:28 19° ESE 02:31:27 35° ENE 02:36:15 10° N visible
10 May 4.3 04:09:03 27° SW 04:10:48 33° W 04:15:32 10° NNW visible
11 May 5.8 01:57:00 10° ESE 02:00:40 20° ENE 02:04:30 10° NNE visible
11 May 3.6 03:37:30 36° SSW 03:39:34 62° WSW 03:44:50 10° NNW visible
12 May 6.3 01:28:36 10° ENE 01:30:00 11° NE 01:31:41 10° NE visible
12 May 3.8 03:05:55 31° SSE 03:08:30 71° ENE 03:13:48 10° N visible
12 May 5.2 04:46:31 13° WSW 04:48:27 16° W 04:51:28 10° NW visible
